Weather History for Philip, SD

Change the Weather History Date:

Saturday, June 15, 2013

  Actual Average Record
Temperature  
Mean Temperature 69 °F 67 °F  
Max Temperature 82 °F 80 °F 104 °F (1952)
Min Temperature 56 °F 53 °F 35 °F (1989)
Degree Days  
Heating Degree Days 0 2  
Month to date heating degree days 63 45  
Since 1 June heating degree days 63 45  
Since 1 July heating degree days 7085 7179  
Cooling Degree Days 4 4  
Month to date cooling degree days 23 41  
Year to date cooling degree days 44 68  
Since 1 June cooling degree days 23 41  
Growing Degree Days 19 (Base 50)    
Moisture  
Dew Point 46 °F    
Average Humidity 48    
Maximum Humidity 69    
Minimum Humidity 26    
Precipitation  
Precipitation 0.00 in 0.09 in 3.13 in (1967)
Month to date precipitation 0.21 1.46  
Year to date precipitation 5.77 8.38  
Sea Level Pressure  
Sea Level Pressure 29.95 in    
Wind  
Wind Speed 4 mph (NNW)    
Max Wind Speed 15 mph    
Max Gust Speed 17 mph    
Visibility 10 miles    
Events      
T = Trace of Precipitation, MM = Missing Value Source: NWS Daily Summary

Daily Weather History Graph

Daily Weather History Graph

Search for Another Location

Airport:

Trip Planner

Search our weather history database for the weather conditions in past years. The results will help you decide how hot, cold, wet, or windy it might be!

Date:

Astronomy

Jun. 15, 2013 Rise Set
Actual Time 5:02 AM MDT 8:31 PM MDT
Civil Twilight 4:26 AM MDT 9:07 PM MDT
Nautical Twilight 3:38 AM MDT 9:55 PM MDT
Astronomical Twilight 2:37 AM MDT 10:56 PM MDT
Moon 11:52 AM MDT (6/15) No Moon Set
Length of Visible Light 16h 41m
Length of Day
15h 28m
Waxing Crescent, 40% of the Moon is Illuminated
Jun 15
Waxing Crescent
Jun 16
First Quarter
Jun 23
Full
Jun 29
Last Quarter
Jul 8
New

Hourly Weather History & Observations

Time (MDT) Temp. Dew Point Humidity Pressure Visibility Wind Dir Wind Speed Gust Speed Precip Events Conditions
12:55 AM 62.1 °F 48.9 °F 62% 29.96 in 10.0 mi North 4.6 mph - N/A   Mostly Cloudy
1:55 AM 62.1 °F 46.9 °F 58% 29.96 in 10.0 mi North 9.2 mph - N/A   Scattered Clouds
2:55 AM 61.0 °F 46.0 °F 58% 29.93 in 10.0 mi North 10.4 mph - N/A   Clear
3:55 AM 62.1 °F 44.1 °F 52% 29.91 in 10.0 mi North 10.4 mph - N/A   Mostly Cloudy
4:55 AM 60.1 °F 46.0 °F 60% 29.95 in 10.0 mi Calm Calm - N/A   Clear
5:55 AM 57.0 °F 46.0 °F 67% 29.98 in 10.0 mi Calm Calm - N/A   Mostly Cloudy
6:55 AM 62.1 °F 48.9 °F 62% 29.98 in 10.0 mi WNW 3.5 mph - N/A   Mostly Cloudy
7:55 AM 68.0 °F 46.0 °F 45% 29.99 in 10.0 mi Calm Calm - N/A   Overcast
8:55 AM 70.0 °F 43.0 °F 38% 30.00 in 10.0 mi ENE 4.6 mph - N/A   Overcast
9:55 AM 73.9 °F 41.0 °F 30% 29.99 in 10.0 mi NNW 3.5 mph - N/A   Mostly Cloudy
10:55 AM 73.9 °F 44.1 °F 34% 29.99 in 10.0 mi North 11.5 mph - N/A   Overcast
11:55 AM 75.9 °F 45.0 °F 33% 29.98 in 10.0 mi West 6.9 mph - N/A   Mostly Cloudy
12:55 PM 77.0 °F 41.0 °F 28% 29.97 in 10.0 mi NNE 8.1 mph - N/A   Overcast
1:55 PM 80.1 °F 42.1 °F 26% 29.96 in 10.0 mi Calm Calm - N/A   Clear
2:55 PM 81.0 °F 44.1 °F 27% 29.94 in 10.0 mi WSW 3.5 mph - N/A   Clear
3:55 PM 81.0 °F 44.1 °F 27% 29.92 in 10.0 mi NW 6.9 mph - N/A   Clear
4:55 PM 80.1 °F 45.0 °F 29% 29.91 in 10.0 mi Calm Calm - N/A   Clear
5:55 PM 80.1 °F 46.9 °F 31% 29.91 in 10.0 mi SW 9.2 mph - N/A   Clear
6:55 PM 78.1 °F 46.9 °F 33% 29.91 in 10.0 mi SW 5.8 mph - N/A   Clear
7:55 PM 75.9 °F 51.1 °F 42% 29.91 in 10.0 mi Calm Calm - N/A   Clear
8:55 PM 64.9 °F 50.0 °F 58% 29.93 in 10.0 mi Calm Calm - N/A   Clear
9:55 PM 64.0 °F 48.9 °F 58% 29.95 in 10.0 mi Calm Calm - N/A   Clear
10:55 PM 61.0 °F 50.0 °F 67% 29.94 in 10.0 mi ENE 3.5 mph - N/A   Clear
11:55 PM 62.1 °F 48.0 °F 60% 29.94 in 10.0 mi South 3.5 mph - N/A   Clear